User: anonymous   Login
Location: Anuling
(14.1239°N, 120.8922°E)
Time: 01:19:49
(UTC+00:00)
Language:

Cosmos 2341 Rocket - Orbit

View from above orbital plane
View from above orbital plane
View from above satellite
View from above satellite

Ground track
Ground track

The orbit is defined by the following mean orbital elements,

1 24773U          26070.78840154 +.00000000 +00000-0 +76756-4 0 00003
2 24773  82.9253 168.8991 0025502  70.9835  42.8450 13.73972422    05
Epoch (UTC): 11 March 2026 18:55:17
Eccentricity: 0.0025502
inclination: 82.9253°
perigee height: 967 km
apogee height: 1004 km
right ascension of ascending node: 168.8991°
argument of perigee: 70.9835°
revolutions per day: 13.73972422
mean anomaly at epoch: 42.8450°

The dashed part of the orbit path shows where the satellite is in the earth's shadow,  

DLR